Location: Cedar Brake
(32.2526°N, 97.8459°W)
Time: 21:24:53
(UTC+00:00)

Cosmos 1674 Rocket - Pass Details

Date: 22 April 2026
Orbit: 597 x 621 km, 82.5° (Epoch: 21 May)

Event Time Altitude Azimuth Distance (km) Brightness Sun altitude
Rises 02:52:09 0° 356° (N) 2,863 7.5 -21.6°
Reaches altitude 10° 02:54:23 10° 359° (N) 1,960 6.5 -22.0°
Enters shadow 02:58:35 68° 71° (ENE) 658 3.4 -22.7°
